Location: Devore Heights
(34.2372°N, 117.4156°W)
Time: 17:09:06
(UTC+00:00)

Explorer 7 - Pass Details

Date: 14 September 2024
Orbit: 460 x 606 km, 50.3° (Epoch: 12 October)

Event Time Altitude Azimuth Distance (km) Brightness Sun altitude
Exits shadow 11:41:19 11° 345° (NNW) 1,579 9.2 -23.2°
Drops below altitude 10° 11:41:56 10° 355° (N) 1,618 9.4 -23.1°
Sets 11:45:40 0° 35° (NE) 2,482 11.0 -22.4°
